Location: Stara Lesna
(49.1528°N, 20.2911°E)
Time: 21:08:40
(UTC+02:00)

Cosmos 1943 Rocket - Pass Details

Date: 21 September 2019
Orbit: 811 x 845 km, 71.0° (Epoch: 15 October)

Event Time Altitude Azimuth Distance (km) Brightness Sun altitude
Exits shadow 04:31:10 30° 272° (W) 1,443 2.9 -18.6°
Maximum altitude 04:32:54 37° 310° (NW) 1,262 2.9 -18.3°
Drops below altitude 10° 04:38:03 10° 17° (NNE) 2,437 5.1 -17.5°
Sets 04:40:42 0° 26° (NNE) 3,380 6.1 -17.1°
